Peru, IL

1:18 PM CDT on June 23, 2018 (GMT -0500)
Illinois Valley Regional-Duncan

Weather History for KVYS - November, 2017

Change the Weather History Date:

Wednesday, November 15, 2017

  Actual Average Record
Temperature  
Mean Temperature 42 °F -  
Max Temperature 52 °F 47 °F 72 °F (1990)
Min Temperature 32 °F 30 °F 13 °F (1976)
Degree Days  
Heating Degree Days 23    
Moisture  
Dew Point 37 °F    
Average Humidity 81    
Maximum Humidity 97    
Minimum Humidity 57    
Precipitation  
Precipitation 0.19 in - - ()
Sea Level Pressure  
Sea Level Pressure 29.92 in    
Wind  
Wind Speed 14 mph (WSW)    
Max Wind Speed 30 mph    
Max Gust Speed 38 mph    
Visibility 8 miles    
Events Rain , Thunderstorm    
Averages and records for this station are not official NWS values.
T = Trace of Precipitation, MM = Missing Value Source: NWS Daily Summary

Daily Weather History Graph

Daily Weather History Graph

Search for Another Location

Airport or City:

Astronomy

Nov. 15, 2017 Rise Set
Actual Time 6:45 AM CST 4:36 PM CST
Civil Twilight 6:15 AM CST 5:06 PM CST
Nautical Twilight 5:42 AM CST 5:39 PM CST
Astronomical Twilight 5:09 AM CST 6:12 PM CST
Moon 3:43 AM CST (11/15) 3:34 PM CST (11/15)
Length of Visible Light 10h 50m
Length of Day
9h 51m
Waning Crescent, 7% of the Moon is Illuminated
Nov 15
Waning Crescent
Nov 18
New
Nov 26
First Quarter
Dec 3
Full
Dec 10
Last Quarter

Hourly Weather History & Observations

Time (CST) Temp. Windchill Dew Point Humidity Pressure Visibility Wind Dir Wind Speed Gust Speed Precip Events Conditions
12:15 AM 46.6 °F - 38.3 °F 73% 29.99 in 10.0 mi South 11.5 mph - N/A   Overcast
12:35 AM 46.4 °F 41.5 °F 38.1 °F 73% 29.99 in 10.0 mi South 10.4 mph - N/A   Overcast
12:55 AM 46.9 °F - 37.9 °F 71% 29.99 in 10.0 mi South 16.1 mph 19.6 mph N/A   Overcast
1:15 AM 46.8 °F - 38.3 °F 72% 29.99 in 10.0 mi South 12.7 mph - N/A   Overcast
1:35 AM 46.9 °F - 38.1 °F 71% 29.98 in 10.0 mi South 11.5 mph - N/A   Overcast
1:55 AM 46.8 °F - 38.5 °F 73% 29.97 in 10.0 mi South 11.5 mph - N/A   Overcast
2:15 AM 46.2 °F 40.5 °F 38.8 °F 75% 29.96 in 10.0 mi South 12.7 mph - N/A Rain Light Rain
2:35 AM 45.0 °F 40.1 °F 40.3 °F 84% 29.94 in 5.0 mi South 9.2 mph - 0.02 in Rain Heavy Rain
2:55 AM 45.5 °F 40.3 °F 40.1 °F 81% 29.92 in 10.0 mi South 10.4 mph - 0.04 in   Overcast
3:15 AM 44.8 °F 39.4 °F 40.6 °F 85% 29.92 in 5.0 mi South 10.4 mph - 0.02 in Rain Rain
3:35 AM 45.0 °F 39.3 °F 40.8 °F 85% 29.90 in 10.0 mi South 11.5 mph - 0.02 in   Overcast
3:55 AM 45.0 °F 39.7 °F 40.6 °F 85% 29.89 in 10.0 mi South 10.4 mph - 0.02 in   Overcast
4:15 AM 44.6 °F 39.2 °F 41.0 °F 87% 29.88 in 10.0 mi South 10.4 mph - 0.01 in Thunderstorm Overcast
4:35 AM 44.6 °F 39.2 °F 41.2 °F 88% 29.88 in 10.0 mi South 10.4 mph - 0.01 in   Overcast
4:55 AM 44.2 °F 37.6 °F 41.5 °F 90% 29.87 in 7.0 mi South 13.8 mph - 0.01 in   Overcast
5:35 AM 43.9 °F 38.8 °F 41.9 °F 93% 29.87 in 7.0 mi South 9.2 mph - 0.01 in   Overcast
5:55 AM 43.9 °F 38.3 °F 41.9 °F 93% 29.87 in 7.0 mi South 10.4 mph - 0.01 in   Overcast
6:15 AM 43.9 °F 39.3 °F 41.9 °F 93% 29.86 in 7.0 mi South 8.1 mph - N/A Rain Light Rain
6:35 AM 43.7 °F 37.7 °F 41.9 °F 93% 29.86 in 5.0 mi SSW 11.5 mph - N/A   Overcast
6:55 AM 43.7 °F 38.1 °F 42.3 °F 95% 29.85 in 4.0 mi SSW 10.4 mph - 0.01 in   Overcast
7:15 AM 43.7 °F 38.6 °F 42.4 °F 95% 29.85 in 1.8 mi SSW 9.2 mph - 0.03 in Rain Rain
7:35 AM 43.7 °F 38.6 °F 42.8 °F 97% 29.84 in 2.5 mi SSW 9.2 mph - 0.07 in Rain Light Rain
7:55 AM 43.9 °F 37.9 °F 42.8 °F 96% 29.82 in 2.5 mi South 11.5 mph - 0.09 in Rain Rain
8:15 AM 44.1 °F 38.1 °F 43.0 °F 96% 29.84 in 3.0 mi SW 11.5 mph 17.3 mph 0.01 in Rain Rain
8:35 AM 44.2 °F 38.4 °F 43.0 °F 95% 29.84 in 4.0 mi SW 11.5 mph - 0.01 in   Overcast
8:55 AM 44.2 °F 38.0 °F 43.2 °F 96% 29.83 in 1.2 mi SW 12.7 mph 17.3 mph 0.01 in   Overcast
9:15 AM 44.6 °F 38.8 °F 43.5 °F 96% 29.83 in 1.5 mi SW 11.5 mph - N/A   Overcast
9:35 AM 44.6 °F 38.1 °F 43.7 °F 97% 29.83 in 1.5 mi WSW 13.8 mph - N/A   Overcast
9:55 AM 45.1 °F 39.1 °F 44.2 °F 97% 29.83 in 2.0 mi WSW 12.7 mph - N/A   Overcast
10:15 AM 45.7 °F 40.2 °F 44.8 °F 97% 29.82 in 2.0 mi WSW 11.5 mph 17.3 mph N/A   Overcast
10:35 AM 46.4 °F 40.7 °F 45.5 °F 97% 29.82 in 2.5 mi WSW 12.7 mph 19.6 mph N/A   Overcast
10:55 AM 46.8 °F - 45.9 °F 97% 29.82 in 3.0 mi West 12.7 mph - N/A   Overcast
11:15 AM 47.7 °F - 46.8 °F 97% 29.82 in 4.0 mi West 13.8 mph 19.6 mph N/A   Overcast
11:35 AM 49.3 °F - 47.5 °F 94% 29.80 in 7.0 mi WNW 16.1 mph 20.7 mph N/A   Overcast
11:55 AM 49.6 °F - 46.8 °F 90% 29.81 in 10.0 mi WNW 15.0 mph 25.3 mph N/A   Overcast
12:15 PM 48.7 °F - 45.0 °F 87% 29.81 in 10.0 mi WNW 19.6 mph 26.5 mph N/A   Overcast
12:35 PM 49.3 °F - 44.4 °F 83% 29.82 in 10.0 mi WNW 17.3 mph 23.0 mph N/A   Overcast
12:55 PM 50.5 °F - 43.5 °F 77% 29.83 in 10.0 mi WNW 18.4 mph 29.9 mph N/A   Mostly Cloudy
1:15 PM 50.9 °F - 43.3 °F 75% 29.84 in 10.0 mi WNW 23.0 mph 29.9 mph N/A   Mostly Cloudy
1:35 PM 51.6 °F - 42.1 °F 70% 29.84 in 10.0 mi WNW 20.7 mph 29.9 mph N/A   Mostly Cloudy
1:55 PM 52.2 °F - 43.0 °F 71% 29.84 in 10.0 mi WNW 16.1 mph 23.0 mph N/A   Scattered Clouds
2:15 PM 52.2 °F - 40.5 °F 64% 29.84 in 10.0 mi WNW 18.4 mph 28.8 mph N/A   Scattered Clouds
2:35 PM 52.0 °F - 38.3 °F 60% 29.85 in 10.0 mi WNW 19.6 mph 26.5 mph N/A   Scattered Clouds
2:55 PM 51.3 °F - 36.7 °F 57% 29.86 in 10.0 mi WNW 18.4 mph 26.5 mph N/A   Clear
3:35 PM 50.2 °F - 36.1 °F 59% 29.88 in 10.0 mi WNW 16.1 mph 23.0 mph N/A   Clear
3:55 PM 49.5 °F - 36.1 °F 60% 29.89 in 10.0 mi WNW 15.0 mph 21.9 mph N/A   Clear
4:15 PM 48.4 °F - 34.7 °F 59% 29.89 in 10.0 mi WNW 16.1 mph 20.7 mph N/A   Clear
4:35 PM 46.6 °F - 35.4 °F 65% 29.90 in 10.0 mi West 13.8 mph 20.7 mph N/A   Clear
4:55 PM 45.9 °F 41.2 °F 35.6 °F 67% 29.90 in 10.0 mi West 9.2 mph - N/A   Clear
5:15 PM 45.5 °F 39.6 °F 34.7 °F 66% 29.91 in 10.0 mi WNW 12.7 mph 21.9 mph N/A   Clear
5:35 PM 45.0 °F 36.9 °F 34.9 °F 68% 29.92 in 10.0 mi West 20.7 mph 31.1 mph N/A   Clear
5:55 PM 39.4 °F 28.3 °F 33.1 °F 78% 29.95 in 10.0 mi WNW 26.5 mph 33.4 mph N/A   Clear
6:15 PM 37.0 °F 26.7 °F 31.5 °F 80% 29.97 in 10.0 mi WNW 19.6 mph 32.2 mph N/A   Scattered Clouds
6:35 PM 36.0 °F 24.7 °F 30.2 °F 80% 29.99 in 10.0 mi WNW 21.9 mph 35.7 mph N/A   Mostly Cloudy
6:55 PM 34.5 °F 22.3 °F 28.4 °F 78% 30.00 in 10.0 mi WNW 24.2 mph 32.2 mph N/A   Overcast
7:15 PM 33.8 °F 21.0 °F 27.5 °F 78% 30.00 in 10.0 mi WNW 25.3 mph 38.0 mph N/A   Overcast
7:35 PM 33.1 °F 19.1 °F 27.9 °F 81% 30.00 in 10.0 mi WNW 29.9 mph 38.0 mph N/A   Overcast
7:55 PM 32.5 °F 20.5 °F 27.1 °F 80% 30.01 in 10.0 mi NW 20.7 mph 32.2 mph N/A   Overcast
8:15 PM 32.0 °F 19.8 °F 26.1 °F 79% 30.02 in 10.0 mi WNW 20.7 mph 28.8 mph N/A   Overcast
8:35 PM 32.0 °F 19.8 °F 25.9 °F 78% 30.04 in 10.0 mi NW 20.7 mph 28.8 mph N/A   Overcast
8:55 PM 32.0 °F 18.9 °F 25.0 °F 75% 30.03 in 10.0 mi WNW 24.2 mph 34.5 mph N/A   Overcast
9:15 PM 32.0 °F 20.8 °F 25.0 °F 75% 30.04 in 10.0 mi WNW 17.3 mph 27.6 mph N/A   Overcast
9:35 PM 32.0 °F 18.9 °F 25.0 °F 75% 30.05 in 10.0 mi WNW 24.2 mph 31.1 mph N/A   Overcast
9:55 PM 32.0 °F 20.8 °F 24.8 °F 75% 30.05 in 10.0 mi WNW 17.3 mph 27.6 mph N/A   Overcast
10:15 PM 32.4 °F 20.9 °F 25.3 °F 75% 30.06 in 10.0 mi NW 18.4 mph 27.6 mph N/A   Overcast
10:35 PM 32.4 °F 20.3 °F 25.5 °F 76% 30.05 in 10.0 mi NW 20.7 mph 26.5 mph N/A   Overcast
10:55 PM 32.5 °F 21.5 °F 25.2 °F 74% 30.06 in 10.0 mi NW 17.3 mph 31.1 mph N/A   Overcast
11:15 PM 32.4 °F 22.1 °F 25.5 °F 76% 30.07 in 10.0 mi NW 15.0 mph 21.9 mph N/A   Overcast
11:35 PM 32.2 °F 20.4 °F 25.5 °F 76% 30.07 in 10.0 mi WNW 19.6 mph 24.2 mph N/A   Overcast
11:55 PM 32.0 °F 22.1 °F 25.3 °F 76% 30.08 in 10.0 mi WNW 13.8 mph 20.7 mph N/A   Overcast